TimeAST,TemperatureF,Dew PointF,Humidity,Sea Level PressureIn,VisibilityMPH,Wind Direction,Wind SpeedMPH,Gust SpeedMPH,PrecipitationIn,Events,Conditions,WindDirDegrees,DateUTC
12:00 AM,16.3,3.4,57,30.13,-9999.0,West,9.2,19.6,N/A,,Unknown,280,2013-02-07 04:00:00
1:00 AM,12.9,-4.0,47,30.18,-9999.0,WNW,10.4,18.4,N/A,,Unknown,290,2013-02-07 05:00:00
2:00 AM,11,-5,34,30.21,,West,11.5,,,,,280,2013-02-07 06:00:00
2:00 AM,10.8,-4.5,50,30.21,-9999.0,West,11.5,18.4,N/A,,Unknown,280,2013-02-07 06:00:00
3:00 AM,8.6,-6.5,50,30.24,-9999.0,West,10.4,19.6,N/A,,Unknown,280,2013-02-07 07:00:00
4:00 AM,6.6,-6.5,55,30.27,-9999.0,WNW,8.1,-,N/A,,Unknown,290,2013-02-07 08:00:00
5:00 AM,5,-7,41,30.30,,West,8.1,,,,,280,2013-02-07 09:00:00
5:00 AM,4.8,-7.2,58,30.30,-9999.0,West,8.1,-,N/A,,Unknown,280,2013-02-07 09:00:00
6:00 AM,3.4,-8.3,58,30.32,-9999.0,West,5.8,-,N/A,,Unknown,270,2013-02-07 10:00:00
7:00 AM,2.1,-8.9,60,30.35,-9999.0,West,6.9,-,N/A,,Unknown,280,2013-02-07 11:00:00
8:00 AM,1,-10,43,30.39,,WNW,6.9,,,,,290,2013-02-07 12:00:00
8:00 AM,1.0,-10.3,59,30.39,-9999.0,WNW,6.9,-,N/A,,Unknown,290,2013-02-07 12:00:00
9:00 AM,1.6,-15.2,46,30.43,-9999.0,WNW,12.7,21.9,N/A,,Unknown,300,2013-02-07 13:00:00
10:00 AM,1.9,-15.9,43,30.46,-9999.0,NW,11.5,19.6,N/A,,Unknown,310,2013-02-07 14:00:00
11:00 AM,3,-18,21,30.48,,NW,11.5,,,,,310,2013-02-07 15:00:00
11:00 AM,3.0,-17.5,38,30.48,-9999.0,NW,11.5,21.9,N/A,,Unknown,310,2013-02-07 15:00:00
12:00 PM,4.5,-17.1,36,30.50,-9999.0,WNW,10.4,18.4,N/A,,Unknown,300,2013-02-07 16:00:00
1:00 PM,6.1,-17.7,33,30.49,-9999.0,WNW,10.4,17.3,N/A,,Unknown,300,2013-02-07 17:00:00
2:00 PM,7,-18,16,30.49,,WNW,9.2,,,,,290,2013-02-07 18:00:00
2:00 PM,7.0,-17.9,31,30.49,-9999.0,WNW,9.2,-,N/A,,Unknown,290,2013-02-07 18:00:00
3:00 PM,8.2,-18.0,29,30.49,-9999.0,NW,10.4,-,N/A,,Unknown,310,2013-02-07 19:00:00
4:00 PM,8.2,-18.8,28,30.51,-9999.0,WNW,9.2,-,N/A,,Unknown,300,2013-02-07 20:00:00
5:00 PM,8,-19,14,30.53,,NNW,8.1,,,,,330,2013-02-07 21:00:00
5:00 PM,7.5,-18.6,30,30.53,-9999.0,NNW,8.1,-,N/A,,Unknown,330,2013-02-07 21:00:00
6:00 PM,4.8,-18.2,34,30.54,-9999.0,NW,5.8,-,N/A,,Unknown,320,2013-02-07 22:00:00
7:00 PM,2.8,-16.8,40,30.57,-9999.0,NW,3.5,-,N/A,,Unknown,320,2013-02-07 23:00:00
8:00 PM,1,-15,31,30.58,,NNW,2.3,,,,,340,2013-02-08 00:00:00
8:00 PM,1.0,-14.6,48,30.58,-9999.0,NNW,2.3,-,N/A,,Unknown,340,2013-02-08 00:00:00
9:00 PM,-0.0,-13.5,53,30.60,-9999.0,WNW,3.5,-,N/A,,Unknown,300,2013-02-08 01:00:00
10:00 PM,-0.6,-13.4,55,30.61,-9999.0,West,3.5,-,N/A,,Unknown,260,2013-02-08 02:00:00
11:00 PM,-3,-12,52,30.62,,WSW,2.3,,,,,250,2013-02-08 03:00:00
11:00 PM,-2.7,-11.7,65,30.62,-9999.0,WSW,2.3,-,N/A,,Unknown,250,2013-02-08 03:00:00